Theta_e
307 309 309 309 309 308 308 308 307 306 306 305 304 303 303 303 303 304 309 311 311 308 308 314 314 314 315 317 319 320 322 321 322 322 323 323 324 324 325 324 325 326 328 329 325
304 308 310 310 310 310 308 308 307 306 305 304 304 303 303 303 303 311 312 310 307 307 309 314 314 315 316 318 319 321 322 322 323 323 323 322 322 323 322 322 323 323 324 326 326
304 304 306 311 310 310 309 307 306 305 305 305 304 303 302 303 314 315 314 308 307 307 314 314 315 316 317 318 319 320 321 323 322 322 321 322 321 320 320 321 321 323 324 326 326
309 305 305 305 308 308 307 305 305 307 307 307 305 303 302 305 321 323 317 313 308 309 317 316 315 316 318 320 319 320 321 321 322 321 320 321 320 320 320 320 320 320 321 322 324
311 310 306 306 306 306 306 307 308 309 309 308 306 303 302 315 314 316 316 311 308 314 314 315 315 317 319 320 319 320 321 320 320 320 319 319 319 320 320 320 319 320 319 320 322
310 310 311 307 307 308 308 309 309 309 309 306 306 303 306 314 312 314 313 310 315 318 315 315 317 318 319 320 320 320 319 320 319 319 319 319 319 319 320 319 319 320 320 320 323
307 309 309 312 308 308 310 310 309 310 310 309 306 304 314 314 311 319 316 317 319 317 314 316 318 318 318 320 318 319 319 320 320 319 320 319 320 320 320 320 320 320 320 321 321
305 306 307 308 311 308 308 312 312 313 313 313 311 315 319 313 310 317 317 317 315 314 317 318 317 317 318 319 318 319 319 319 321 321 320 319 320 321 320 320 320 320 320 320 320
305 305 307 307 308 312 308 310 312 314 313 313 314 318 322 314 309 314 319 315 313 316 317 316 316 316 317 319 319 319 319 320 320 321 320 319 319 321 320 320 320 320 320 320 320
308 307 309 310 309 310 311 308 313 314 313 315 317 319 320 316 313 312 319 316 315 316 316 316 317 319 319 319 318 320 320 320 320 321 319 319 319 320 320 320 320 321 321 320 320
309 311 311 312 312 310 312 308 321 322 320 323 322 321 317 318 313 314 317 316 316 316 319 318 320 320 320 320 319 319 319 319 320 320 319 320 321 321 321 321 321 321 320 321 320
311 311 311 311 312 312 313 313 318 318 319 320 320 319 318 318 316 315 317 316 317 319 319 320 320 320 320 320 319 319 318 319 320 320 320 321 321 321 322 321 321 321 321 321 320
311 310 311 312 312 313 313 313 317 317 319 318 317 318 318 318 318 316 317 317 319 319 320 321 321 320 319 319 319 319 319 320 320 320 321 321 321 321 321 321 320 320 320 320 320
311 313 312 313 314 317 315 313 317 317 322 321 319 319 318 318 318 319 317 317 319 320 321 321 320 320 319 318 318 319 319 319 318 319 320 321 321 323 323 323 323 321 321 321 320
311 312 311 313 317 315 316 316 317 318 329 323 320 317 318 318 319 319 319 318 320 319 318 320 319 318 318 319 319 318 319 319 319 320 321 321 322 323 324 324 324 323 322 321 321
313 308 311 314 314 315 315 316 319 325 326 321 319 320 318 318 317 318 319 317 317 318 319 318 318 318 319 320 319 319 319 320 321 322 323 323 324 324 324 325 325 324 323 323 322
310 310 310 314 315 312 315 317 326 324 321 321 321 319 320 319 319 319 319 319 318 319 318 318 319 319 319 319 319 320 321 322 323 324 324 324 325 326 326 324 324 324 323 323 322
312 311 313 313 313 313 315 321 326 323 322 320 320 319 320 319 319 318 318 319 319 319 320 321 321 320 320 320 320 321 321 321 324 326 326 325 326 327 326 324 323 321 322 322 321
315 317 316 315 314 316 321 324 324 322 321 320 320 322 321 320 320 321 319 319 319 319 320 321 322 321 320 320 319 321 322 321 325 326 327 324 325 325 325 325 323 322 321 321 321
316 319 317 317 316 319 323 317 322 319 319 320 321 321 323 322 322 322 322 320 320 320 318 320 323 321 322 321 322 321 320 322 324 332 329 325 326 326 326 325 324 323 322 321 319
317 321 318 319 319 320 323 322 320 318 318 319 319 320 320 320 320 321 321 321 319 320 319 319 321 321 320 321 321 321 322 322 322 324 329 329 325 323 324 324 324 323 321 319 318
318 323 317 319 323 321 323 320 316 318 317 318 319 320 319 319 320 320 321 320 318 318 319 318 322 323 321 320 320 321 321 321 327 327 326 327 329 323 323 323 322 321 319 318 317
318 318 317 319 325 321 320 319 318 318 318 318 318 318 318 319 319 318 318 317 316 316 318 319 321 324 320 321 321 320 321 321 321 324 326 328 325 321 321 321 319 319 317 316 316
317 321 317 318 318 321 320 320 319 316 317 317 318 317 317 317 317 318 318 316 315 315 314 315 318 318 322 320 320 321 320 319 320 325 323 323 321 320 319 321 320 317 315 316 316
315 318 315 320 318 317 316 317 317 317 315 315 317 316 316 317 317 317 316 316 313 314 313 315 318 317 316 316 316 317 317 317 317 318 321 321 320 318 319 319 316 316 316 315 316
315 315 314 315 315 316 312 317 316 315 315 316 316 315 314 316 316 317 314 314 315 314 314 316 317 317 317 316 315 316 316 315 316 316 316 317 318 317 316 316 316 316 316 316 315
312 313 313 311 316 315 317 316 315 313 314 313 314 314 315 314 312 312 312 313 313 314 314 315 316 318 319 315 316 316 315 317 315 315 316 316 316 315 316 316 316 315 315 314 313
Wind_Speed
14 12 8 6 6 8 7 6 6 6 7 8 8 9 9 9 11 13 14 12 13 15 8 7 11 14 14 17 14 13 11 13 18 15 15 17 5 15 8 11 10 12 11 8 4
18 14 12 9 6 6 6 6 6 6 6 6 7 7 6 8 11 18 17 16 16 14 10 13 15 16 19 18 15 13 13 19 14 9 8 16 6 12 5 15 20 17 15 13 8
22 18 13 10 8 6 5 5 5 5 5 5 5 5 5 5 10 10 14 15 14 14 13 11 11 16 20 16 20 18 17 13 5 6 9 12 9 12 14 16 19 18 16 14 12
25 21 18 13 9 7 5 4 4 4 5 5 5 4 5 4 2 2 7 10 13 19 11 13 14 18 16 16 18 17 18 20 10 7 11 12 15 17 16 17 17 9 11 13 14
25 23 20 16 11 7 5 4 4 5 5 5 4 3 4 8 11 7 5 11 15 13 14 15 16 17 15 15 16 16 18 14 16 14 14 15 15 15 17 14 16 16 13 15 17
25 24 21 17 13 8 5 4 5 4 4 4 3 3 4 15 3 5 8 14 13 13 13 14 12 16 12 17 16 13 19 18 14 17 17 16 17 18 18 15 19 16 16 17 18
23 22 21 18 15 10 8 5 5 5 4 3 1 3 10 12 5 9 12 12 11 12 11 13 10 8 11 9 13 16 12 14 17 18 16 15 18 20 20 16 15 16 16 16 14
22 22 20 19 16 12 9 7 6 7 6 5 4 2 9 5 10 11 13 11 12 11 10 10 10 13 12 5 5 14 16 16 18 21 19 14 17 16 24 19 16 19 19 17 17
22 22 21 19 17 13 11 9 9 10 8 6 4 5 11 8 12 15 16 12 13 11 8 8 10 14 12 11 13 15 14 19 15 12 9 12 14 19 4 10 13 16 15 18 19
22 22 23 20 18 14 11 9 8 6 7 5 8 8 13 10 11 17 17 13 15 13 12 12 10 11 13 13 14 15 19 15 15 10 10 16 17 16 11 15 18 19 18 19 17
22 23 23 22 18 13 9 6 3 4 13 11 1 8 4 4 9 16 19 16 15 17 15 17 13 15 17 17 18 17 13 16 12 7 8 12 16 17 17 19 17 20 21 21 20
26 28 29 23 16 11 9 10 5 5 9 16 13 14 7 4 9 16 18 17 17 17 18 15 16 17 16 13 11 13 16 18 17 14 13 16 20 17 17 16 22 22 22 21 22
30 34 28 17 11 10 12 12 6 4 5 5 3 9 14 14 13 18 21 22 15 17 18 18 12 5 10 15 14 17 17 17 17 14 10 16 19 19 18 27 28 24 24 23 22
33 28 18 5 1 4 9 11 7 4 5 9 7 4 4 12 12 12 19 21 17 15 17 16 16 16 13 13 12 17 17 17 15 15 15 16 16 16 12 14 13 17 20 21 24
29 22 12 7 8 4 7 7 6 4 4 4 7 2 4 15 3 17 13 22 18 15 9 16 15 12 17 20 17 18 15 12 15 16 18 19 13 15 17 16 16 13 14 16 10
23 17 8 3 9 6 5 4 4 7 2 5 6 7 8 6 1 3 11 14 10 15 15 16 14 6 12 9 5 13 10 14 16 16 18 20 19 17 16 17 11 10 17 7 4
14 11 2 6 1 4 6 7 6 5 2 2 2 6 2 9 8 6 9 12 11 10 13 17 20 19 17 15 14 13 13 12 15 15 18 20 20 15 7 9 10 13 10 10 4
7 7 10 3 1 4 6 9 5 2 5 3 4 2 4 3 5 5 3 5 9 13 13 14 14 11 11 16 16 19 18 13 22 18 18 20 18 14 16 4 6 6 4 1 4
2 5 3 3 2 4 10 6 4 4 4 3 2 5 3 3 5 6 4 12 11 6 9 10 17 8 12 13 12 16 16 15 14 19 18 18 26 22 24 18 13 14 14 8 5
3 2 3 3 3 4 9 2 3 3 1 3 2 3 5 4 4 2 3 2 5 3 3 2 11 13 15 18 19 16 12 8 8 6 16 15 16 7 12 11 5 7 8 7 8
3 6 2 2 3 12 6 6 3 6 4 3 3 3 6 6 5 5 4 5 4 5 7 8 12 16 16 19 20 15 12 17 16 14 10 15 12 7 6 4 6 5 5 8 12
2 3 4 4 10 3 3 3 3 1 1 3 4 6 5 5 7 4 7 2 4 6 8 5 4 13 21 20 19 15 19 15 5 10 13 11 8 11 6 11 7 8 9 14 17
6 3 4 2 5 3 4 3 2 3 1 4 4 1 5 6 5 4 6 1 6 6 4 3 4 8 13 15 14 14 13 14 13 13 19 14 12 4 6 11 10 14 21 20 16
5 2 4 0 3 7 1 2 3 3 7 6 7 5 5 7 8 7 6 3 6 4 3 4 13 14 14 19 5 8 16 17 13 9 15 19 24 22 10 12 14 25 21 17 17
4 3 3 1 4 4 4 2 4 2 2 2 3 4 5 6 7 12 13 13 5 8 8 4 9 16 20 21 21 23 21 20 20 21 20 21 23 21 18 21 19 14 18 18 19
7 6 2 3 2 5 3 3 3 3 3 2 5 8 5 8 11 17 12 12 12 11 10 9 7 15 20 18 20 22 22 22 23 22 19 23 25 22 27 7 15 14 18 22 22
4 3 5 6 3 4 3 3 0 3 2 3 8 6 10 10 14 18 21 21 15 11 10 5 3 7 13 12 13 14 17 18 17 14 16 16 14 7 9 10 14 16 20 24 27
Wind_Direction
8 352 335 323 294 282 273 266 266 266 269 268 264 256 251 252 254 262 251 234 221 234 204 196 202 208 210 220 219 225 240 247 244 251 251 247 228 249 235 281 264 252 265 306 320
9 9 355 338 324 301 287 279 270 265 260 259 262 263 258 263 268 262 240 234 228 213 198 196 200 199 207 215 210 221 225 238 244 243 241 273 227 280 233 248 244 241 245 253 257
19 12 7 356 336 321 304 294 283 272 264 261 257 254 249 270 290 241 218 232 212 199 190 205 212 204 219 212 211 219 247 251 249 261 263 253 222 242 242 254 264 256 240 233 244
21 18 12 8 358 340 320 302 290 285 280 271 263 243 220 226 269 166 214 205 191 172 202 210 213 211 226 217 219 235 239 259 273 238 237 249 251 254 245 249 250 251 262 269 250
13 14 12 9 9 2 344 320 305 298 294 288 267 241 204 236 252 274 211 183 170 181 201 205 210 215 228 223 230 223 253 232 253 250 248 254 250 256 250 243 244 241 230 244 239
360 4 5 3 359 356 347 329 320 313 312 312 277 232 220 249 196 234 170 168 179 190 205 210 221 225 264 245 220 211 237 252 236 240 236 244 251 238 241 246 241 237 238 236 227
347 348 352 354 350 339 326 314 304 307 309 315 266 238 259 228 200 192 178 180 193 200 211 214 235 219 232 236 234 255 253 244 241 239 240 241 253 246 243 242 221 237 234 239 233
339 337 339 341 342 332 313 305 296 289 289 296 289 275 262 232 216 201 191 198 203 198 214 211 221 237 248 251 238 240 240 252 236 219 226 230 259 253 227 215 234 243 242 237 240
333 331 328 329 328 325 311 287 294 291 266 258 303 227 263 245 211 198 196 194 185 192 197 211 220 231 209 240 232 221 249 226 242 179 236 202 254 234 142 228 246 242 236 239 237
325 323 320 319 315 318 306 285 291 277 239 243 248 248 238 236 201 197 195 199 195 199 211 219 227 229 229 221 233 226 215 237 259 181 196 247 236 260 208 220 229 236 244 246 242
333 323 315 309 303 301 289 278 252 213 210 228 257 258 139 168 182 192 193 200 201 212 218 205 228 227 232 223 260 292 284 282 276 230 252 267 271 268 257 249 248 247 239 243 246
331 320 311 303 293 278 250 212 317 338 280 236 245 243 223 209 191 195 186 198 203 220 216 235 230 252 251 257 264 260 258 258 261 265 263 267 264 265 261 254 249 255 254 245 246
330 321 312 303 280 262 226 224 247 301 254 126 240 239 231 221 235 195 194 207 210 225 228 232 249 183 274 252 244 249 255 265 271 276 233 257 266 257 252 250 252 249 256 256 255
334 330 323 296 181 172 224 224 220 271 268 145 173 146 201 204 224 215 202 215 240 243 235 246 242 257 229 245 251 256 246 251 261 261 260 252 271 273 266 265 255 237 233 251 253
337 338 335 198 162 175 148 156 197 249 260 118 106 119 175 192 83 194 208 215 238 234 250 248 229 241 251 257 252 255 279 279 270 263 270 259 260 261 248 241 236 230 263 254 247
338 342 9 99 187 161 168 178 178 236 196 138 141 140 148 201 140 125 202 226 266 280 263 257 268 259 280 298 269 286 256 253 251 254 254 254 255 262 261 261 257 228 220 183 139
341 355 32 125 88 167 184 185 235 254 126 82 35 210 189 172 181 170 196 209 231 225 239 256 248 247 240 255 260 232 253 267 259 247 256 251 246 258 288 299 279 290 273 126 145
353 37 31 27 257 176 172 224 261 18 54 80 315 332 115 156 148 162 190 226 238 282 298 284 259 253 294 245 263 255 245 251 280 280 288 303 280 270 274 224 271 247 252 300 219
326 22 72 350 148 164 234 228 7 40 13 250 201 250 225 168 355 330 248 230 217 290 282 301 271 284 281 280 287 281 277 291 319 286 273 272 274 268 262 242 190 209 232 257 290
222 253 64 12 179 223 250 313 46 37 312 208 275 231 226 218 247 257 255 285 248 179 155 272 277 272 285 301 273 262 268 275 252 270 265 267 274 279 344 320 22 161 224 224 279
151 243 5 334 232 236 269 67 94 75 353 312 348 304 308 312 263 242 241 264 259 273 248 260 255 268 267 253 257 266 253 262 260 266 266 279 272 352 314 359 306 260 256 272 273
247 253 354 285 254 301 15 38 21 56 242 281 285 266 267 282 300 276 257 197 2 321 251 265 273 274 270 278 271 249 267 249 239 259 257 284 275 289 85 248 221 302 303 282 289
315 3 345 286 274 190 106 162 294 259 281 303 284 327 351 310 294 269 267 26 336 315 339 352 247 289 276 236 236 252 245 257 263 273 262 265 259 108 331 300 256 291 286 290 295
290 231 118 349 28 325 355 189 226 125 276 287 287 291 274 259 260 276 262 2 331 333 63 326 271 263 270 293 252 275 280 276 261 267 273 260 278 281 308 278 270 267 297 286 287
331 75 358 10 88 347 279 44 261 243 182 265 231 319 329 278 268 247 253 259 275 251 226 257 262 266 272 273 280 281 278 274 266 261 259 272 282 289 280 286 292 296 287 284 290
336 326 171 100 280 271 133 137 295 101 279 231 260 6 330 284 298 299 300 284 272 254 269 175 261 267 274 265 257 262 264 258 254 256 251 253 256 254 260 334 316 319 310 299 288
2 338 291 107 178 261 58 24 215 316 204 326 343 295 287 296 294 284 275 269 263 260 268 237 257 272 263 284 290 266 260 273 250 261 268 275 296 338 289 325 316 294 288 306 300